User: anonymous   Login
Location: Holcomb Observatory
(44.4922°N, 73.1654°W)
Time: 05:28:36
(UTC-05:00)
Language:

Cosmos 1727 Rocket - Orbit

View from above orbital plane
View from above orbital plane
View from above satellite
View from above satellite

Ground track
Ground track

The orbit data is extracted from the following two-line orbital elements,

1 16511U 86008B   18020.70450245 +.00000060 +00000-0 +45730-4 0  9993
2 16511 082.9428 058.6144 0024983 038.0288 090.5542 13.75819209605924
Epoch (UTC): 20 January 2018 16:54:29
Eccentricity: 0.0024983
inclination: 82.9428°
perigee height: 960 km
apogee height: 997 km
right ascension of ascending node: 58.6144°
argument of perigee: 38.0288°
revolutions per day: 13.75819209
mean anomaly at epoch: 90.5542°
orbit number at epoch: 60592

The dashed part of the orbit path shows where the satellite is in the earth's shadow,  

DLR